Time,TemperatureF,DewpointF,PressureIn,WindDirection,WindDirectionDegrees,WindSpeedMPH,WindSpeedGustMPH,Humidity,HourlyPrecipIn,Conditions,Clouds,dailyrainin,SolarRadiationWatts/m^2,SoftwareType,DateUTC
2017-02-20 00:00:00,52.5,44.8,30.16,ENE,68,1.0,-999.0,75,0.00,,,0.00,0,WeatherHawk,2017-02-20 08:00:00,
2017-02-20 00:05:00,52.5,44.8,30.16,ENE,69,1.0,-999.0,75,0.00,,,0.00,1,WeatherHawk,2017-02-20 08:05:00,
2017-02-20 00:10:00,52.5,44.8,30.16,ENE,66,2.0,-999.0,75,0.00,,,0.00,0,WeatherHawk,2017-02-20 08:10:00,
2017-02-20 00:15:00,52.3,44.7,30.16,NNE,33,1.0,-999.0,75,0.00,,,0.00,0,WeatherHawk,2017-02-20 08:15:00,
2017-02-20 00:20:00,52.3,44.7,30.16,SSE,162,0.0,-999.0,75,0.00,,,0.00,0,WeatherHawk,2017-02-20 08:20:00,
2017-02-20 00:25:00,52.5,44.8,30.17,West,270,0.0,-999.0,75,0.00,,,0.00,0,WeatherHawk,2017-02-20 08:25:00,
2017-02-20 00:30:00,52.7,44.6,30.17,North,359,2.0,-999.0,74,0.00,,,0.00,0,WeatherHawk,2017-02-20 08:30:00,
2017-02-20 00:35:00,52.7,44.6,30.17,North,350,2.0,-999.0,74,0.00,,,0.00,0,WeatherHawk,2017-02-20 08:35:00,
2017-02-20 00:40:00,52.7,44.6,30.17,NNE,16,1.0,-999.0,74,0.00,,,0.00,0,WeatherHawk,2017-02-20 08:40:00,
2017-02-20 00:45:00,52.7,44.6,30.17,SSW,197,0.0,-999.0,74,0.00,,,0.00,0,WeatherHawk,2017-02-20 08:45:00,
2017-02-20 00:50:00,52.7,44.6,30.17,East,98,0.0,-999.0,74,0.00,,,0.00,0,WeatherHawk,2017-02-20 08:50:00,
2017-02-20 00:55:00,52.9,44.8,30.17,NNE,30,1.0,-999.0,74,0.00,,,0.00,0,WeatherHawk,2017-02-20 08:55:00,
2017-02-20 01:00:00,52.9,44.8,30.17,East,92,1.0,-999.0,74,0.00,,,0.00,0,WeatherHawk,2017-02-20 09:00:00,
2017-02-20 01:05:00,52.9,44.8,30.17,East,98,1.0,-999.0,74,0.00,,,0.00,0,WeatherHawk,2017-02-20 09:05:00,
2017-02-20 01:10:00,52.7,44.6,30.16,ESE,116,2.0,-999.0,74,0.00,,,0.00,0,WeatherHawk,2017-02-20 09:10:00,
2017-02-20 01:15:00,52.7,44.6,30.16,ESE,114,2.0,-999.0,74,0.00,,,0.00,1,WeatherHawk,2017-02-20 09:15:00,
2017-02-20 01:20:00,52.5,44.8,30.16,WSW,247,1.0,-999.0,75,0.00,,,0.00,0,WeatherHawk,2017-02-20 09:20:00,
2017-02-20 01:25:00,52.5,44.8,30.16,South,190,0.0,-999.0,75,0.00,,,0.00,0,WeatherHawk,2017-02-20 09:25:00,
2017-02-20 01:30:00,52.3,45.0,30.16,South,172,1.0,-999.0,76,0.00,,,0.00,0,WeatherHawk,2017-02-20 09:30:00,
2017-02-20 01:35:00,52.3,45.0,30.16,SE,131,0.0,-999.0,76,0.00,,,0.00,0,WeatherHawk,2017-02-20 09:35:00,
2017-02-20 01:40:00,52.3,45.0,30.16,ENE,68,1.0,-999.0,76,0.00,,,0.00,0,WeatherHawk,2017-02-20 09:40:00,
2017-02-20 01:45:00,52.3,44.7,30.16,ESE,102,1.0,-999.0,75,0.00,,,0.00,0,WeatherHawk,2017-02-20 09:45:00,
2017-02-20 01:50:00,52.5,44.8,30.16,East,95,2.0,-999.0,75,0.00,,,0.00,0,WeatherHawk,2017-02-20 09:50:00,
2017-02-20 01:55:00,52.5,44.8,30.16,East,81,2.0,-999.0,75,0.00,,,0.00,0,WeatherHawk,2017-02-20 09:55:00,
2017-02-20 02:00:00,52.5,44.8,30.15,NE,56,1.0,-999.0,75,0.00,,,0.00,0,WeatherHawk,2017-02-20 10:00:00,
2017-02-20 02:05:00,52.3,44.7,30.16,NNE,26,1.0,-999.0,75,0.00,,,0.00,0,WeatherHawk,2017-02-20 10:05:00,
2017-02-20 02:10:00,52.3,44.7,30.16,ENE,57,1.0,-999.0,75,0.00,,,0.00,0,WeatherHawk,2017-02-20 10:10:00,
2017-02-20 02:15:00,52.5,44.5,30.16,East,86,3.0,-999.0,74,0.00,,,0.00,0,WeatherHawk,2017-02-20 10:15:00,
2017-02-20 02:20:00,52.5,44.1,30.16,East,88,2.0,-999.0,73,0.00,,,0.00,0,WeatherHawk,2017-02-20 10:20:00,
2017-02-20 02:25:00,52.7,44.6,30.16,East,96,1.0,-999.0,74,0.00,,,0.00,0,WeatherHawk,2017-02-20 10:25:00,
2017-02-20 02:30:00,52.7,44.6,30.16,ESE,102,2.0,-999.0,74,0.00,,,0.00,0,WeatherHawk,2017-02-20 10:30:00,
2017-02-20 02:35:00,52.7,44.6,30.16,ESE,103,1.0,-999.0,74,0.00,,,0.00,0,WeatherHawk,2017-02-20 10:35:00,
2017-02-20 02:40:00,52.7,44.3,30.16,ENE,69,2.0,-999.0,73,0.00,,,0.00,0,WeatherHawk,2017-02-20 10:40:00,
2017-02-20 02:45:00,52.9,44.5,30.17,ESE,116,1.0,-999.0,73,0.00,,,0.00,1,WeatherHawk,2017-02-20 10:45:00,
2017-02-20 02:50:00,52.9,44.5,30.17,North,7,1.0,-999.0,73,0.00,,,0.00,0,WeatherHawk,2017-02-20 10:50:00,
2017-02-20 02:55:00,52.9,44.5,30.17,North,359,2.0,-999.0,73,0.00,,,0.00,0,WeatherHawk,2017-02-20 10:55:00,
2017-02-20 03:00:00,52.9,44.5,30.17,NNW,347,1.0,-999.0,73,0.00,,,0.00,0,WeatherHawk,2017-02-20 11:00:00,
2017-02-20 03:05:00,52.9,44.8,30.17,North,353,1.0,-999.0,74,0.00,,,0.00,0,WeatherHawk,2017-02-20 11:05:00,
2017-02-20 03:10:00,52.7,44.6,30.17,North,358,2.0,-999.0,74,0.00,,,0.00,0,WeatherHawk,2017-02-20 11:10:00,
2017-02-20 03:15:00,52.5,44.8,30.17,North,6,2.0,-999.0,75,0.00,,,0.00,0,WeatherHawk,2017-02-20 11:15:00,
2017-02-20 03:20:00,52.3,45.7,30.17,North,1,2.0,-999.0,78,0.00,,,0.00,0,WeatherHawk,2017-02-20 11:20:00,
2017-02-20 03:25:00,52.3,45.3,30.17,North,358,3.0,-999.0,77,0.00,,,0.00,0,WeatherHawk,2017-02-20 11:25:00,
2017-02-20 03:30:00,52.3,46.0,30.17,North,4,2.0,-999.0,79,0.00,,,0.00,0,WeatherHawk,2017-02-20 11:30:00,
2017-02-20 03:35:00,52.2,45.5,30.17,North,359,2.0,-999.0,78,0.00,,,0.00,0,WeatherHawk,2017-02-20 11:35:00,
2017-02-20 03:40:00,52.2,45.8,30.17,NNE,19,1.0,-999.0,79,0.00,,,0.00,0,WeatherHawk,2017-02-20 11:40:00,
2017-02-20 03:45:00,52.2,45.5,30.17,NNW,338,1.0,-999.0,78,0.00,,,0.00,0,WeatherHawk,2017-02-20 11:45:00,
2017-02-20 03:50:00,52.2,45.2,30.17,East,89,1.0,-999.0,77,0.00,,,0.00,0,WeatherHawk,2017-02-20 11:50:00,
2017-02-20 04:00:00,52.3,45.3,30.17,SE,133,2.0,-999.0,77,0.00,,,0.00,0,WeatherHawk,2017-02-20 12:00:00,
2017-02-20 04:05:00,52.3,46.0,30.16,SSE,165,1.0,-999.0,79,0.00,,,0.00,0,WeatherHawk,2017-02-20 12:05:00,
2017-02-20 04:10:00,52.2,46.2,30.17,SSE,159,1.0,-999.0,80,0.00,,,0.00,1,WeatherHawk,2017-02-20 12:10:00,
2017-02-20 04:15:00,52.0,45.7,30.17,SSW,203,1.0,-999.0,79,0.00,,,0.00,0,WeatherHawk,2017-02-20 12:15:00,
2017-02-20 04:20:00,52.0,44.7,30.17,East,101,1.0,-999.0,76,0.00,,,0.00,0,WeatherHawk,2017-02-20 12:20:00,
2017-02-20 04:25:00,52.2,45.2,30.17,East,82,2.0,-999.0,77,0.00,,,0.00,0,WeatherHawk,2017-02-20 12:25:00,
2017-02-20 04:30:00,52.3,45.0,30.18,ESE,114,0.0,-999.0,76,0.00,,,0.00,0,WeatherHawk,2017-02-20 12:30:00,
2017-02-20 04:35:00,52.5,45.5,30.18,NNW,340,1.0,-999.0,77,0.00,,,0.00,0,WeatherHawk,2017-02-20 12:35:00,
2017-02-20 04:40:00,52.3,46.0,30.18,North,357,1.0,-999.0,79,0.00,,,0.00,0,WeatherHawk,2017-02-20 12:40:00,
2017-02-20 04:45:00,52.3,46.4,30.18,North,356,1.0,-999.0,80,0.00,,,0.00,0,WeatherHawk,2017-02-20 12:45:00,
2017-02-20 04:50:00,52.2,46.5,30.18,North,1,1.0,-999.0,81,0.00,,,0.00,0,WeatherHawk,2017-02-20 12:50:00,
2017-02-20 04:55:00,52.0,46.0,30.18,NE,53,1.0,-999.0,80,0.00,,,0.00,0,WeatherHawk,2017-02-20 12:55:00,
2017-02-20 05:00:00,52.0,46.0,30.18,NNE,23,2.0,-999.0,80,0.00,,,0.00,0,WeatherHawk,2017-02-20 13:00:00,
2017-02-20 05:05:00,52.0,45.7,30.18,East,96,0.0,-999.0,79,0.00,,,0.00,0,WeatherHawk,2017-02-20 13:05:00,
2017-02-20 05:10:00,52.0,45.3,30.18,ENE,61,1.0,-999.0,78,0.00,,,0.00,0,WeatherHawk,2017-02-20 13:10:00,
2017-02-20 05:15:00,52.0,45.3,30.18,ENE,72,2.0,-999.0,78,0.00,,,0.00,0,WeatherHawk,2017-02-20 13:15:00,
2017-02-20 05:20:00,52.0,45.3,30.18,SE,126,0.0,-999.0,78,0.00,,,0.00,0,WeatherHawk,2017-02-20 13:20:00,
2017-02-20 05:25:00,51.8,45.2,30.18,East,100,2.0,-999.0,78,0.00,,,0.00,0,WeatherHawk,2017-02-20 13:25:00,
2017-02-20 05:30:00,51.8,45.5,30.18,ENE,57,2.0,-999.0,79,0.00,,,0.00,1,WeatherHawk,2017-02-20 13:30:00,
2017-02-20 05:35:00,51.8,45.8,30.18,SE,127,1.0,-999.0,80,0.00,,,0.00,0,WeatherHawk,2017-02-20 13:35:00,
2017-02-20 05:40:00,51.6,45.7,30.18,SSE,154,0.0,-999.0,80,0.00,,,0.00,0,WeatherHawk,2017-02-20 13:40:00,
2017-02-20 05:45:00,51.4,45.8,30.18,East,95,0.0,-999.0,81,0.00,,,0.00,0,WeatherHawk,2017-02-20 13:45:00,
2017-02-20 05:50:00,51.3,45.3,30.18,SE,146,0.0,-999.0,80,0.00,,,0.00,0,WeatherHawk,2017-02-20 13:50:00,
2017-02-20 05:55:00,51.3,45.3,30.19,SW,218,1.0,-999.0,80,0.00,,,0.00,0,WeatherHawk,2017-02-20 13:55:00,
2017-02-20 06:00:00,51.4,45.5,30.19,West,269,1.0,-999.0,80,0.00,,,0.00,0,WeatherHawk,2017-02-20 14:00:00,
2017-02-20 06:05:00,51.6,45.3,30.19,NNE,22,1.0,-999.0,79,0.00,,,0.00,0,WeatherHawk,2017-02-20 14:05:00,
2017-02-20 06:10:00,51.8,45.2,30.19,North,357,1.0,-999.0,78,0.00,,,0.00,0,WeatherHawk,2017-02-20 14:10:00,
2017-02-20 06:15:00,52.2,45.2,30.19,NNW,346,2.0,-999.0,77,0.00,,,0.00,0,WeatherHawk,2017-02-20 14:15:00,
2017-02-20 06:20:00,52.2,45.5,30.20,North,0,2.0,-999.0,78,0.00,,,0.00,0,WeatherHawk,2017-02-20 14:20:00,
2017-02-20 06:25:00,52.2,45.5,30.20,North,353,2.0,-999.0,78,0.00,,,0.00,0,WeatherHawk,2017-02-20 14:25:00,
2017-02-20 06:30:00,52.2,45.5,30.20,North,349,2.0,-999.0,78,0.00,,,0.00,0,WeatherHawk,2017-02-20 14:30:00,
2017-02-20 06:35:00,52.2,45.5,30.20,North,353,2.0,-999.0,78,0.00,,,0.00,0,WeatherHawk,2017-02-20 14:35:00,
2017-02-20 06:40:00,52.2,45.2,30.21,North,358,2.0,-999.0,77,0.00,,,0.00,0,WeatherHawk,2017-02-20 14:40:00,
2017-02-20 06:45:00,52.3,45.3,30.21,NNW,344,2.0,-999.0,77,0.00,,,0.00,0,WeatherHawk,2017-02-20 14:45:00,
2017-02-20 06:50:00,52.3,45.3,30.21,NNW,336,2.0,-999.0,77,0.00,,,0.00,0,WeatherHawk,2017-02-20 14:50:00,
2017-02-20 06:55:00,52.5,45.2,30.21,NNW,343,2.0,-999.0,76,0.00,,,0.00,0,WeatherHawk,2017-02-20 14:55:00,
2017-02-20 07:00:00,52.5,45.2,30.22,NNW,341,1.0,-999.0,76,0.00,,,0.00,0,WeatherHawk,2017-02-20 15:00:00,
2017-02-20 07:05:00,52.7,45.3,30.22,NNW,345,2.0,-999.0,76,0.00,,,0.00,0,WeatherHawk,2017-02-20 15:05:00,
2017-02-20 07:10:00,52.7,45.3,30.22,North,355,2.0,-999.0,76,0.00,,,0.00,0,WeatherHawk,2017-02-20 15:10:00,
2017-02-20 07:15:00,52.7,45.3,30.22,North,352,1.0,-999.0,76,0.00,,,0.00,0,WeatherHawk,2017-02-20 15:15:00,
2017-02-20 07:20:00,53.1,45.7,30.22,NNE,22,2.0,-999.0,76,0.00,,,0.00,0,WeatherHawk,2017-02-20 15:20:00,
2017-02-20 07:25:00,53.8,46.7,30.22,ENE,69,2.0,-999.0,77,0.00,,,0.00,0,WeatherHawk,2017-02-20 15:25:00,
2017-02-20 07:30:00,54.3,46.2,30.22,East,94,2.0,-999.0,74,0.00,,,0.00,0,WeatherHawk,2017-02-20 15:30:00,
2017-02-20 07:35:00,54.9,46.4,30.22,ENE,73,0.0,-999.0,73,0.00,,,0.00,179,WeatherHawk,2017-02-20 15:35:00,
2017-02-20 07:40:00,55.8,46.1,30.22,ESE,104,4.0,-999.0,70,0.00,,,0.00,195,WeatherHawk,2017-02-20 15:40:00,
2017-02-20 07:45:00,56.1,45.7,30.22,ESE,122,1.0,-999.0,68,0.00,,,0.00,213,WeatherHawk,2017-02-20 15:45:00,
2017-02-20 07:50:00,56.3,46.3,30.22,ESE,103,2.0,-999.0,69,0.00,,,0.00,230,WeatherHawk,2017-02-20 15:50:00,
2017-02-20 07:55:00,56.3,46.3,30.22,ENE,61,3.0,-999.0,69,0.00,,,0.00,248,WeatherHawk,2017-02-20 15:55:00,
2017-02-20 08:00:00,55.9,45.1,30.23,NE,45,2.0,-999.0,67,0.00,,,0.00,283,WeatherHawk,2017-02-20 16:00:00,
2017-02-20 08:05:00,56.7,45.8,30.23,East,97,2.0,-999.0,67,0.00,,,0.00,348,WeatherHawk,2017-02-20 16:05:00,
2017-02-20 08:10:00,56.8,45.2,30.24,NE,53,2.0,-999.0,65,0.00,,,0.00,211,WeatherHawk,2017-02-20 16:10:00,
2017-02-20 08:15:00,56.5,45.3,30.24,East,96,0.0,-999.0,66,0.00,,,0.00,191,WeatherHawk,2017-02-20 16:15:00,
2017-02-20 08:20:00,56.3,44.3,30.24,ENE,63,2.0,-999.0,64,0.00,,,0.00,0,WeatherHawk,2017-02-20 16:20:00,
2017-02-20 08:25:00,56.1,44.5,30.24,East,93,1.0,-999.0,65,0.00,,,0.00,0,WeatherHawk,2017-02-20 16:25:00,
2017-02-20 08:30:00,56.3,44.7,30.24,East,84,3.0,-999.0,65,0.00,,,0.00,0,WeatherHawk,2017-02-20 16:30:00,
2017-02-20 08:35:00,56.8,44.4,30.24,ENE,64,3.0,-999.0,63,0.00,,,0.00,263,WeatherHawk,2017-02-20 16:35:00,
2017-02-20 08:40:00,57.0,44.5,30.24,East,87,1.0,-999.0,63,0.00,,,0.00,233,WeatherHawk,2017-02-20 16:40:00,
2017-02-20 08:45:00,57.4,44.9,30.24,East,88,4.0,-999.0,63,0.00,,,0.00,387,WeatherHawk,2017-02-20 16:45:00,
2017-02-20 08:50:00,57.9,45.0,30.24,East,89,5.0,-999.0,62,0.00,,,0.00,0,WeatherHawk,2017-02-20 16:50:00,
2017-02-20 08:55:00,58.1,46.0,30.24,SE,130,1.0,-999.0,64,0.00,,,0.00,0,WeatherHawk,2017-02-20 16:55:00,
2017-02-20 09:00:00,58.5,44.6,30.24,ENE,71,2.0,-999.0,60,0.00,,,0.00,0,WeatherHawk,2017-02-20 17:00:00,
2017-02-20 09:05:00,58.8,44.1,30.25,ESE,103,3.0,-999.0,58,0.00,,,0.00,362,WeatherHawk,2017-02-20 17:05:00,
2017-02-20 09:10:00,58.8,44.1,30.25,East,82,4.0,-999.0,58,0.00,,,0.00,559,WeatherHawk,2017-02-20 17:10:00,
2017-02-20 09:15:00,59.2,44.0,30.25,SW,236,2.0,-999.0,57,0.00,,,0.00,0,WeatherHawk,2017-02-20 17:15:00,
2017-02-20 09:20:00,59.7,44.5,30.25,ESE,106,1.0,-999.0,57,0.00,,,0.00,0,WeatherHawk,2017-02-20 17:20:00,
2017-02-20 09:25:00,60.1,44.3,30.25,NNW,336,1.0,-999.0,56,0.00,,,0.00,31,WeatherHawk,2017-02-20 17:25:00,
2017-02-20 09:30:00,60.8,45.0,30.25,East,98,3.0,-999.0,56,0.00,,,0.00,27,WeatherHawk,2017-02-20 17:30:00,
2017-02-20 09:35:00,60.8,44.5,30.26,East,86,1.0,-999.0,55,0.00,,,0.00,1,WeatherHawk,2017-02-20 17:35:00,
2017-02-20 09:40:00,60.1,44.3,30.26,North,9,2.0,-999.0,56,0.00,,,0.00,40,WeatherHawk,2017-02-20 17:40:00,
2017-02-20 09:45:00,60.4,45.1,30.26,SE,125,1.0,-999.0,57,0.00,,,0.00,333,WeatherHawk,2017-02-20 17:45:00,
2017-02-20 09:50:00,61.0,44.2,30.26,SW,235,1.0,-999.0,54,0.00,,,0.00,23,WeatherHawk,2017-02-20 17:50:00,
2017-02-20 09:55:00,61.5,45.2,30.26,SSW,207,2.0,-999.0,55,0.00,,,0.00,0,WeatherHawk,2017-02-20 17:55:00,
2017-02-20 10:00:00,63.1,45.2,30.26,ESE,103,1.0,-999.0,52,0.00,,,0.00,0,WeatherHawk,2017-02-20 18:00:00,
2017-02-20 10:05:00,62.6,45.2,30.26,SSE,152,2.0,-999.0,53,0.00,,,0.00,3,WeatherHawk,2017-02-20 18:05:00,
2017-02-20 10:10:00,61.5,44.7,30.26,SE,146,3.0,-999.0,54,0.00,,,0.00,423,WeatherHawk,2017-02-20 18:10:00,
2017-02-20 10:15:00,61.9,45.0,30.26,SE,138,3.0,-999.0,54,0.00,,,0.00,549,WeatherHawk,2017-02-20 18:15:00,
2017-02-20 10:20:00,62.4,45.1,30.26,WSW,238,2.0,-999.0,53,0.00,,,0.00,460,WeatherHawk,2017-02-20 18:20:00,
2017-02-20 10:25:00,63.1,45.7,30.26,SW,224,2.0,-999.0,53,0.00,,,0.00,467,WeatherHawk,2017-02-20 18:25:00,
2017-02-20 10:30:00,63.1,45.2,30.26,NNW,337,1.0,-999.0,52,0.00,,,0.00,448,WeatherHawk,2017-02-20 18:30:00,
2017-02-20 10:35:00,63.5,45.6,30.26,SW,216,3.0,-999.0,52,0.00,,,0.00,441,WeatherHawk,2017-02-20 18:35:00,
2017-02-20 10:40:00,63.5,45.6,30.26,WNW,295,2.0,-999.0,52,0.00,,,0.00,493,WeatherHawk,2017-02-20 18:40:00,
2017-02-20 10:45:00,64.4,45.9,30.26,NW,319,1.0,-999.0,51,0.00,,,0.00,479,WeatherHawk,2017-02-20 18:45:00,
2017-02-20 10:50:00,65.3,46.7,30.26,SW,219,1.0,-999.0,51,0.00,,,0.00,568,WeatherHawk,2017-02-20 18:50:00,
2017-02-20 10:55:00,65.7,46.5,30.26,West,266,0.0,-999.0,50,0.00,,,0.00,541,WeatherHawk,2017-02-20 18:55:00,
2017-02-20 11:00:00,65.3,46.7,30.26,SSW,206,3.0,-999.0,51,0.00,,,0.00,0,WeatherHawk,2017-02-20 19:00:00,
2017-02-20 11:05:00,65.1,46.5,30.25,South,171,3.0,-999.0,51,0.00,,,0.00,1,WeatherHawk,2017-02-20 19:05:00,
2017-02-20 11:10:00,64.0,46.1,30.25,SSE,148,2.0,-999.0,52,0.00,,,0.00,0,WeatherHawk,2017-02-20 19:10:00,
2017-02-20 11:15:00,65.1,47.6,30.25,South,188,2.0,-999.0,53,0.00,,,0.00,1,WeatherHawk,2017-02-20 19:15:00,
2017-02-20 11:20:00,65.5,47.4,30.25,South,175,2.0,-999.0,52,0.00,,,0.00,0,WeatherHawk,2017-02-20 19:20:00,
2017-02-20 11:25:00,64.9,47.4,30.24,SSW,213,2.0,-999.0,53,0.00,,,0.00,1,WeatherHawk,2017-02-20 19:25:00,
2017-02-20 11:30:00,65.3,46.7,30.24,NNE,18,0.0,-999.0,51,0.00,,,0.00,0,WeatherHawk,2017-02-20 19:30:00,
2017-02-20 11:35:00,66.0,47.9,30.24,NW,315,1.0,-999.0,52,0.00,,,0.00,0,WeatherHawk,2017-02-20 19:35:00,
2017-02-20 11:40:00,67.1,47.8,30.24,West,271,1.0,-999.0,50,0.00,,,0.00,0,WeatherHawk,2017-02-20 19:40:00,
2017-02-20 11:45:00,67.3,48.0,30.24,WSW,252,1.0,-999.0,50,0.00,,,0.00,0,WeatherHawk,2017-02-20 19:45:00,
2017-02-20 11:50:00,67.3,48.5,30.23,NNE,17,0.0,-999.0,51,0.00,,,0.00,9,WeatherHawk,2017-02-20 19:50:00,
2017-02-20 11:55:00,66.9,48.2,30.23,East,100,2.0,-999.0,51,0.00,,,0.00,8,WeatherHawk,2017-02-20 19:55:00,
2017-02-20 12:00:00,66.6,48.9,30.23,ESE,105,1.0,-999.0,53,0.00,,,0.00,669,WeatherHawk,2017-02-20 20:00:00,
2017-02-20 12:05:00,65.8,48.2,30.23,WNW,299,2.0,-999.0,53,0.00,,,0.00,299,WeatherHawk,2017-02-20 20:05:00,
2017-02-20 12:10:00,65.8,48.2,30.22,ENE,76,2.0,-999.0,53,0.00,,,0.00,518,WeatherHawk,2017-02-20 20:10:00,
2017-02-20 12:15:00,66.6,48.9,30.22,East,94,0.0,-999.0,53,0.00,,,0.00,1,WeatherHawk,2017-02-20 20:15:00,
2017-02-20 12:20:00,67.6,49.4,30.22,NW,316,1.0,-999.0,52,0.00,,,0.00,8,WeatherHawk,2017-02-20 20:20:00,
2017-02-20 12:25:00,68.0,48.7,30.22,West,276,1.0,-999.0,50,0.00,,,0.00,821,WeatherHawk,2017-02-20 20:25:00,
2017-02-20 12:30:00,68.2,49.4,30.22,ENE,75,1.0,-999.0,51,0.00,,,0.00,1,WeatherHawk,2017-02-20 20:30:00,
2017-02-20 12:35:00,68.2,48.8,30.22,WSW,243,6.0,-999.0,50,0.00,,,0.00,0,WeatherHawk,2017-02-20 20:35:00,
2017-02-20 12:40:00,67.1,48.4,30.21,South,173,4.0,-999.0,51,0.00,,,0.00,0,WeatherHawk,2017-02-20 20:40:00,
2017-02-20 12:45:00,67.1,48.9,30.21,WSW,237,2.0,-999.0,52,0.00,,,0.00,424,WeatherHawk,2017-02-20 20:45:00,
2017-02-20 12:50:00,67.3,48.0,30.21,North,7,2.0,-999.0,50,0.00,,,0.00,2,WeatherHawk,2017-02-20 20:50:00,
2017-02-20 12:55:00,66.9,48.7,30.21,West,276,5.0,-999.0,52,0.00,,,0.00,0,WeatherHawk,2017-02-20 20:55:00,
2017-02-20 13:00:00,66.4,48.7,30.21,NNE,31,2.0,-999.0,53,0.00,,,0.00,0,WeatherHawk,2017-02-20 21:00:00,
2017-02-20 13:05:00,66.2,49.1,30.21,SW,226,5.0,-999.0,54,0.00,,,0.00,0,WeatherHawk,2017-02-20 21:05:00,
2017-02-20 13:10:00,66.4,49.7,30.20,West,260,4.0,-999.0,55,0.00,,,0.00,75,WeatherHawk,2017-02-20 21:10:00,
2017-02-20 13:15:00,67.5,49.7,30.20,West,274,3.0,-999.0,53,0.00,,,0.00,0,WeatherHawk,2017-02-20 21:15:00,
2017-02-20 13:20:00,67.8,49.5,30.20,WSW,254,4.0,-999.0,52,0.00,,,0.00,3,WeatherHawk,2017-02-20 21:20:00,
2017-02-20 13:25:00,67.6,49.4,30.20,West,275,4.0,-999.0,52,0.00,,,0.00,9,WeatherHawk,2017-02-20 21:25:00,
2017-02-20 13:30:00,68.2,49.4,30.20,WNW,296,11.0,-999.0,51,0.00,,,0.00,1,WeatherHawk,2017-02-20 21:30:00,
2017-02-20 13:35:00,68.0,50.2,30.20,WNW,295,6.0,-999.0,53,0.00,,,0.00,23,WeatherHawk,2017-02-20 21:35:00,
2017-02-20 13:40:00,67.8,49.5,30.21,West,265,5.0,-999.0,52,0.00,,,0.00,23,WeatherHawk,2017-02-20 21:40:00,
2017-02-20 13:45:00,67.5,49.7,30.21,SSW,205,8.0,-999.0,53,0.00,,,0.00,28,WeatherHawk,2017-02-20 21:45:00,
2017-02-20 13:50:00,66.9,49.7,30.20,West,265,4.0,-999.0,54,0.00,,,0.00,5,WeatherHawk,2017-02-20 21:50:00,
2017-02-20 13:55:00,67.1,50.4,30.20,WSW,256,8.0,-999.0,55,0.00,,,0.00,1,WeatherHawk,2017-02-20 21:55:00,
2017-02-20 14:00:00,66.7,50.0,30.20,WSW,258,8.0,-999.0,55,0.00,,,0.00,0,WeatherHawk,2017-02-20 22:00:00,
2017-02-20 14:05:00,66.7,50.5,30.20,West,266,3.0,-999.0,56,0.00,,,0.00,1,WeatherHawk,2017-02-20 22:05:00,
2017-02-20 14:10:00,66.9,50.2,30.20,SW,234,8.0,-999.0,55,0.00,,,0.00,7,WeatherHawk,2017-02-20 22:10:00,
2017-02-20 14:15:00,66.7,50.0,30.20,SSW,210,10.0,-999.0,55,0.00,,,0.00,2,WeatherHawk,2017-02-20 22:15:00,
2017-02-20 14:20:00,66.6,50.4,30.20,WSW,242,6.0,-999.0,56,0.00,,,0.00,5,WeatherHawk,2017-02-20 22:20:00,
2017-02-20 14:25:00,66.7,50.5,30.20,SW,231,5.0,-999.0,56,0.00,,,0.00,0,WeatherHawk,2017-02-20 22:25:00,
2017-02-20 14:30:00,67.3,50.6,30.20,SW,216,8.0,-999.0,55,0.00,,,0.00,5,WeatherHawk,2017-02-20 22:30:00,
2017-02-20 14:35:00,66.7,50.5,30.20,SW,226,8.0,-999.0,56,0.00,,,0.00,4,WeatherHawk,2017-02-20 22:35:00,
2017-02-20 14:40:00,67.1,50.4,30.20,SW,230,4.0,-999.0,55,0.00,,,0.00,549,WeatherHawk,2017-02-20 22:40:00,
2017-02-20 14:45:00,66.9,50.2,30.20,SW,219,7.0,-999.0,55,0.00,,,0.00,537,WeatherHawk,2017-02-20 22:45:00,
2017-02-20 14:50:00,67.1,50.9,30.20,WSW,243,7.0,-999.0,56,0.00,,,0.00,524,WeatherHawk,2017-02-20 22:50:00,
2017-02-20 14:55:00,66.9,50.7,30.20,WSW,248,6.0,-999.0,56,0.00,,,0.00,509,WeatherHawk,2017-02-20 22:55:00,
2017-02-20 15:00:00,67.1,50.9,30.20,WSW,240,9.0,-999.0,56,0.00,,,0.00,495,WeatherHawk,2017-02-20 23:00:00,
2017-02-20 15:05:00,66.7,50.5,30.20,SW,228,9.0,-999.0,56,0.00,,,0.00,479,WeatherHawk,2017-02-20 23:05:00,
2017-02-20 15:10:00,66.9,51.2,30.20,West,264,8.0,-999.0,57,0.00,,,0.00,465,WeatherHawk,2017-02-20 23:10:00,
2017-02-20 15:15:00,67.1,51.3,30.20,WSW,252,5.0,-999.0,57,0.00,,,0.00,451,WeatherHawk,2017-02-20 23:15:00,
2017-02-20 15:20:00,67.1,50.9,30.20,WSW,241,8.0,-999.0,56,0.00,,,0.00,435,WeatherHawk,2017-02-20 23:20:00,
2017-02-20 15:25:00,67.1,51.3,30.21,WSW,246,3.0,-999.0,57,0.00,,,0.00,420,WeatherHawk,2017-02-20 23:25:00,
2017-02-20 15:30:00,67.5,51.2,30.21,WSW,251,9.0,-999.0,56,0.00,,,0.00,401,WeatherHawk,2017-02-20 23:30:00,
2017-02-20 15:35:00,67.1,50.9,30.21,West,266,3.0,-999.0,56,0.00,,,0.00,390,WeatherHawk,2017-02-20 23:35:00,
2017-02-20 15:40:00,66.7,50.0,30.21,NW,306,6.0,-999.0,55,0.00,,,0.00,372,WeatherHawk,2017-02-20 23:40:00,
2017-02-20 15:45:00,66.7,50.5,30.21,North,353,3.0,-999.0,56,0.00,,,0.00,356,WeatherHawk,2017-02-20 23:45:00,
2017-02-20 15:50:00,66.7,50.0,30.21,NNW,343,5.0,-999.0,55,0.00,,,0.00,339,WeatherHawk,2017-02-20 23:50:00,
2017-02-20 15:55:00,66.4,50.2,30.21,NW,315,8.0,-999.0,56,0.00,,,0.00,322,WeatherHawk,2017-02-20 23:55:00,
2017-02-20 16:00:00,66.0,50.3,30.21,NNW,335,2.0,-999.0,57,0.00,,,0.00,306,WeatherHawk,2017-02-21 00:00:00,
2017-02-20 16:05:00,66.0,50.3,30.21,NNW,329,5.0,-999.0,57,0.00,,,0.00,288,WeatherHawk,2017-02-21 00:05:00,
2017-02-20 16:10:00,66.2,50.5,30.21,SW,235,4.0,-999.0,57,0.00,,,0.00,272,WeatherHawk,2017-02-21 00:10:00,
2017-02-20 16:15:00,66.0,50.3,30.21,NNW,330,5.0,-999.0,57,0.00,,,0.00,255,WeatherHawk,2017-02-21 00:15:00,
2017-02-20 16:20:00,65.5,49.8,30.21,WNW,296,4.0,-999.0,57,0.00,,,0.00,238,WeatherHawk,2017-02-21 00:20:00,
2017-02-20 16:25:00,65.1,50.0,30.21,WNW,300,6.0,-999.0,58,0.00,,,0.00,220,WeatherHawk,2017-02-21 00:25:00,
2017-02-20 16:30:00,64.8,50.1,30.21,WNW,290,5.0,-999.0,59,0.00,,,0.00,204,WeatherHawk,2017-02-21 00:30:00,
2017-02-20 16:35:00,64.2,50.5,30.21,WNW,295,5.0,-999.0,61,0.00,,,0.00,187,WeatherHawk,2017-02-21 00:35:00,
2017-02-20 16:40:00,64.2,50.5,30.21,WNW,282,3.0,-999.0,61,0.00,,,0.00,170,WeatherHawk,2017-02-21 00:40:00,
2017-02-20 16:45:00,64.0,50.3,30.21,NW,308,4.0,-999.0,61,0.00,,,0.00,153,WeatherHawk,2017-02-21 00:45:00,
2017-02-20 16:50:00,63.3,50.1,30.21,WNW,287,4.0,-999.0,62,0.00,,,0.00,138,WeatherHawk,2017-02-21 00:50:00,
2017-02-20 16:55:00,63.3,50.5,30.21,WNW,291,7.0,-999.0,63,0.00,,,0.00,123,WeatherHawk,2017-02-21 00:55:00,
2017-02-20 17:00:00,62.8,50.0,30.21,NW,323,3.0,-999.0,63,0.00,,,0.00,107,WeatherHawk,2017-02-21 01:00:00,
2017-02-20 17:05:00,62.8,50.4,30.21,NW,307,4.0,-999.0,64,0.00,,,0.00,93,WeatherHawk,2017-02-21 01:05:00,
2017-02-20 17:10:00,62.6,50.7,30.22,West,281,3.0,-999.0,65,0.00,,,0.00,78,WeatherHawk,2017-02-21 01:10:00,
2017-02-20 17:15:00,62.4,50.5,30.22,WNW,291,5.0,-999.0,65,0.00,,,0.00,65,WeatherHawk,2017-02-21 01:15:00,
2017-02-20 17:20:00,62.1,50.6,30.22,WNW,285,6.0,-999.0,66,0.00,,,0.00,51,WeatherHawk,2017-02-21 01:20:00,
2017-02-20 17:25:00,61.7,50.6,30.22,NNW,328,6.0,-999.0,67,0.00,,,0.00,37,WeatherHawk,2017-02-21 01:25:00,
2017-02-20 17:30:00,61.2,50.5,30.23,NNW,331,4.0,-999.0,68,0.00,,,0.00,26,WeatherHawk,2017-02-21 01:30:00,
2017-02-20 17:35:00,60.8,50.6,30.23,NW,309,3.0,-999.0,69,0.00,,,0.00,13,WeatherHawk,2017-02-21 01:35:00,
2017-02-20 17:40:00,60.6,50.8,30.23,NNW,329,5.0,-999.0,70,0.00,,,0.00,4,WeatherHawk,2017-02-21 01:40:00,
2017-02-20 17:45:00,60.3,50.8,30.23,NW,322,6.0,-999.0,71,0.00,,,0.00,2,WeatherHawk,2017-02-21 01:45:00,
2017-02-20 17:50:00,59.9,50.8,30.23,NW,318,4.0,-999.0,72,0.00,,,0.00,1,WeatherHawk,2017-02-21 01:50:00,
2017-02-20 17:55:00,59.5,50.9,30.24,NW,309,4.0,-999.0,73,0.00,,,0.00,0,WeatherHawk,2017-02-21 01:55:00,
2017-02-20 18:00:00,59.2,50.5,30.24,WNW,283,5.0,-999.0,73,0.00,,,0.00,0,WeatherHawk,2017-02-21 02:00:00,
2017-02-20 18:05:00,59.2,50.9,30.24,NW,322,3.0,-999.0,74,0.00,,,0.00,0,WeatherHawk,2017-02-21 02:05:00,
2017-02-20 18:10:00,59.0,51.1,30.24,NNW,330,3.0,-999.0,75,0.00,,,0.00,0,WeatherHawk,2017-02-21 02:10:00,
2017-02-20 18:15:00,58.8,50.9,30.24,NNW,345,4.0,-999.0,75,0.00,,,0.00,0,WeatherHawk,2017-02-21 02:15:00,
2017-02-20 18:20:00,58.6,51.1,30.24,NW,321,4.0,-999.0,76,0.00,,,0.00,0,WeatherHawk,2017-02-21 02:20:00,
2017-02-20 18:25:00,58.3,50.7,30.24,NW,311,6.0,-999.0,76,0.00,,,0.00,0,WeatherHawk,2017-02-21 02:25:00,
2017-02-20 18:30:00,58.3,51.1,30.25,NNW,338,7.0,-999.0,77,0.00,,,0.00,0,WeatherHawk,2017-02-21 02:30:00,
2017-02-20 18:35:00,58.1,50.9,30.25,NNW,344,5.0,-999.0,77,0.00,,,0.00,0,WeatherHawk,2017-02-21 02:35:00,
2017-02-20 18:45:00,57.9,51.1,30.26,NNW,343,5.0,-999.0,78,0.00,,,0.00,0,WeatherHawk,2017-02-21 02:45:00,
2017-02-20 18:50:00,57.9,51.1,30.26,NW,308,7.0,-999.0,78,0.00,,,0.00,0,WeatherHawk,2017-02-21 02:50:00,
2017-02-20 18:55:00,57.9,51.1,30.26,NW,326,5.0,-999.0,78,0.00,,,0.00,0,WeatherHawk,2017-02-21 02:55:00,
2017-02-20 19:00:00,57.7,50.9,30.26,NW,323,10.0,-999.0,78,0.00,,,0.00,0,WeatherHawk,2017-02-21 03:00:00,
2017-02-20 19:05:00,57.7,51.3,30.26,NW,324,6.0,-999.0,79,0.00,,,0.00,0,WeatherHawk,2017-02-21 03:05:00,
2017-02-20 19:10:00,57.6,51.1,30.26,NW,314,6.0,-999.0,79,0.00,,,0.00,0,WeatherHawk,2017-02-21 03:10:00,
2017-02-20 19:15:00,57.4,51.3,30.26,NNW,330,6.0,-999.0,80,0.00,,,0.00,0,WeatherHawk,2017-02-21 03:15:00,
2017-02-20 19:20:00,57.4,51.3,30.27,NW,312,6.0,-999.0,80,0.00,,,0.00,0,WeatherHawk,2017-02-21 03:20:00,
2017-02-20 19:25:00,57.4,51.6,30.27,NNW,341,6.0,-999.0,81,0.00,,,0.00,0,WeatherHawk,2017-02-21 03:25:00,
2017-02-20 19:30:00,57.4,51.6,30.27,NNW,340,7.0,-999.0,81,0.00,,,0.00,0,WeatherHawk,2017-02-21 03:30:00,
2017-02-20 19:35:00,57.2,51.4,30.27,NW,326,3.0,-999.0,81,0.00,,,0.00,0,WeatherHawk,2017-02-21 03:35:00,
2017-02-20 19:40:00,57.2,51.4,30.26,NNW,347,3.0,-999.0,81,0.00,,,0.00,0,WeatherHawk,2017-02-21 03:40:00,
2017-02-20 19:45:00,57.0,51.6,30.26,NNW,343,2.0,-999.0,82,0.00,,,0.00,0,WeatherHawk,2017-02-21 03:45:00,
2017-02-20 19:50:00,56.8,51.4,30.26,WNW,303,2.0,-999.0,82,0.00,,,0.00,0,WeatherHawk,2017-02-21 03:50:00,
2017-02-20 19:55:00,56.7,51.2,30.26,NNW,332,2.0,-999.0,82,0.00,,,0.00,0,WeatherHawk,2017-02-21 03:55:00,
2017-02-20 20:00:00,56.7,51.6,30.26,WNW,298,0.0,-999.0,83,0.00,,,0.00,0,WeatherHawk,2017-02-21 04:00:00,
2017-02-20 20:05:00,56.5,51.4,30.26,North,356,2.0,-999.0,83,0.00,,,0.00,0,WeatherHawk,2017-02-21 04:05:00,
2017-02-20 20:10:00,56.5,51.4,30.26,North,352,1.0,-999.0,83,0.00,,,0.00,0,WeatherHawk,2017-02-21 04:10:00,
2017-02-20 20:15:00,56.5,51.4,30.27,NW,325,2.0,-999.0,83,0.00,,,0.00,0,WeatherHawk,2017-02-21 04:15:00,
2017-02-20 20:20:00,56.5,51.4,30.27,North,1,2.0,-999.0,83,0.00,,,0.00,0,WeatherHawk,2017-02-21 04:20:00,
2017-02-20 20:25:00,56.5,51.7,30.27,North,11,2.0,-999.0,84,0.00,,,0.00,0,WeatherHawk,2017-02-21 04:25:00,
2017-02-20 20:30:00,56.5,51.7,30.27,WNW,291,1.0,-999.0,84,0.00,,,0.00,0,WeatherHawk,2017-02-21 04:30:00,
2017-02-20 20:35:00,56.3,51.5,30.27,NW,308,1.0,-999.0,84,0.00,,,0.00,0,WeatherHawk,2017-02-21 04:35:00,
2017-02-20 20:45:00,56.3,51.5,30.27,NW,317,1.0,-999.0,84,0.00,,,0.00,0,WeatherHawk,2017-02-21 04:45:00,
2017-02-20 20:50:00,56.1,51.4,30.27,SW,219,0.0,-999.0,84,0.00,,,0.00,0,WeatherHawk,2017-02-21 04:50:00,
2017-02-20 20:55:00,56.1,51.4,30.27,North,2,1.0,-999.0,84,0.00,,,0.00,0,WeatherHawk,2017-02-21 04:55:00,
2017-02-20 21:00:00,55.9,51.2,30.27,NW,320,1.0,-999.0,84,0.00,,,0.00,0,WeatherHawk,2017-02-21 05:00:00,
2017-02-20 21:05:00,55.8,51.0,30.27,WNW,296,3.0,-999.0,84,0.00,,,0.00,0,WeatherHawk,2017-02-21 05:05:00,
2017-02-20 21:10:00,55.9,51.2,30.27,NNW,328,2.0,-999.0,84,0.00,,,0.00,0,WeatherHawk,2017-02-21 05:10:00,
2017-02-20 21:15:00,56.1,51.4,30.27,NW,317,3.0,-999.0,84,0.00,,,0.00,0,WeatherHawk,2017-02-21 05:15:00,
2017-02-20 21:20:00,56.3,51.2,30.27,NW,322,2.0,-999.0,83,0.00,,,0.00,0,WeatherHawk,2017-02-21 05:20:00,
2017-02-20 21:25:00,56.5,51.4,30.27,NW,304,3.0,-999.0,83,0.00,,,0.00,0,WeatherHawk,2017-02-21 05:25:00,
2017-02-20 21:30:00,56.7,51.6,30.27,WNW,292,1.0,-999.0,83,0.00,,,0.00,0,WeatherHawk,2017-02-21 05:30:00,
2017-02-20 21:35:00,56.7,51.2,30.27,NNW,338,3.0,-999.0,82,0.00,,,0.00,0,WeatherHawk,2017-02-21 05:35:00,
2017-02-20 21:40:00,56.7,51.2,30.27,NNW,341,4.0,-999.0,82,0.00,,,0.00,0,WeatherHawk,2017-02-21 05:40:00,
2017-02-20 21:45:00,55.9,50.2,30.27,North,5,2.0,-999.0,81,0.00,,,0.00,0,WeatherHawk,2017-02-21 05:45:00,
2017-02-20 21:50:00,55.2,50.1,30.28,North,359,3.0,-999.0,83,0.00,,,0.00,0,WeatherHawk,2017-02-21 05:50:00,
2017-02-20 21:55:00,55.0,50.3,30.28,North,349,4.0,-999.0,84,0.00,,,0.00,0,WeatherHawk,2017-02-21 05:55:00,
2017-02-20 22:00:00,55.2,50.5,30.27,NNW,341,3.0,-999.0,84,0.00,,,0.00,1,WeatherHawk,2017-02-21 06:00:00,
2017-02-20 22:05:00,55.4,51.0,30.28,NNW,333,4.0,-999.0,85,0.00,,,0.00,1,WeatherHawk,2017-02-21 06:05:00,
2017-02-20 22:10:00,55.2,50.5,30.28,NNW,338,3.0,-999.0,84,0.00,,,0.00,1,WeatherHawk,2017-02-21 06:10:00,
2017-02-20 22:15:00,54.9,50.1,30.28,NNW,348,4.0,-999.0,84,0.00,,,0.00,0,WeatherHawk,2017-02-21 06:15:00,
2017-02-20 22:20:00,54.7,50.3,30.28,NNW,344,2.0,-999.0,85,0.00,,,0.00,0,WeatherHawk,2017-02-21 06:20:00,
2017-02-20 22:25:00,54.1,49.7,30.28,NNW,344,4.0,-999.0,85,0.00,,,0.00,0,WeatherHawk,2017-02-21 06:25:00,
2017-02-20 22:30:00,55.0,50.9,30.28,NNW,332,4.0,-999.0,86,0.00,,,0.00,0,WeatherHawk,2017-02-21 06:30:00,
2017-02-20 22:35:00,54.7,50.3,30.28,NNW,334,4.0,-999.0,85,0.00,,,0.00,0,WeatherHawk,2017-02-21 06:35:00,
2017-02-20 22:40:00,55.2,51.1,30.28,NW,323,5.0,-999.0,86,0.00,,,0.00,0,WeatherHawk,2017-02-21 06:40:00,
2017-02-20 22:45:00,55.6,51.1,30.29,NNW,331,3.0,-999.0,85,0.00,,,0.00,0,WeatherHawk,2017-02-21 06:45:00,
2017-02-20 22:50:00,55.6,50.8,30.29,NNW,345,4.0,-999.0,84,0.00,,,0.00,0,WeatherHawk,2017-02-21 06:50:00,
2017-02-20 22:55:00,55.6,51.1,30.29,North,349,4.0,-999.0,85,0.00,,,0.00,0,WeatherHawk,2017-02-21 06:55:00,
2017-02-20 23:00:00,55.2,50.5,30.29,NNW,343,4.0,-999.0,84,0.00,,,0.00,0,WeatherHawk,2017-02-21 07:00:00,
2017-02-20 23:05:00,54.3,49.6,30.29,NNW,340,3.0,-999.0,84,0.00,,,0.00,0,WeatherHawk,2017-02-21 07:05:00,
2017-02-20 23:10:00,54.0,49.6,30.29,NNW,337,3.0,-999.0,85,0.00,,,0.00,1,WeatherHawk,2017-02-21 07:10:00,
2017-02-20 23:15:00,53.8,49.4,30.29,NNW,336,2.0,-999.0,85,0.00,,,0.00,0,WeatherHawk,2017-02-21 07:15:00,
2017-02-20 23:20:00,53.6,49.2,30.29,North,352,2.0,-999.0,85,0.00,,,0.00,0,WeatherHawk,2017-02-21 07:20:00,
2017-02-20 23:25:00,53.4,49.3,30.29,North,7,3.0,-999.0,86,0.00,,,0.00,0,WeatherHawk,2017-02-21 07:25:00,
2017-02-20 23:30:00,53.4,49.3,30.29,NNW,343,2.0,-999.0,86,0.00,,,0.00,0,WeatherHawk,2017-02-21 07:30:00,
2017-02-20 23:35:00,53.4,49.6,30.29,NNW,345,2.0,-999.0,87,0.00,,,0.00,0,WeatherHawk,2017-02-21 07:35:00,
2017-02-20 23:40:00,53.4,49.6,30.29,NNW,330,1.0,-999.0,87,0.00,,,0.00,0,WeatherHawk,2017-02-21 07:40:00,